Regional Weather Roundup
Issued by NWS

Home | Current Version | Previous Version | Text Only | Print | Product List | Glossary On
Versions: 1 2 3 4 5 6 7 8 9 10 11 12 13 14 15 16 17 18 19 20 21 22 23 24 25 26 27 28 29 30 31 32 33 34 35 36 37 38 39 40 41 42 43 44 45 46 47 48 49 50
661
ASUS43 KDTX 220510
RWRMI
MICHIGAN HOURLY REGIONAL WEATHER ROUNDUP
NATIONAL WEATHER SERVICE DETROIT/PONTIAC MI
1200 AM EST MON JAN 22 2018

NOTE: "FAIR" INDICATES FEW OR NO CLOUDS BELOW 12,000 FEET WITH NO
SIGNIFICANT WEATHER AND/OR OBSTRUCTION TO VISIBILITY.

MIZ047>049-052>055-059>063-066>070-074>076-081>083-220600-
SOUTHEAST LOWER MICHIGAN

CITY           SKY/WX    TMP DP  RH WIND       PRES   REMARKS
ADRIAN         FOG       37  36  96 E3        29.99S VSB 1/2
ALMA           FOG       36  36 100 NE6       29.98F VSB 1/2 WCI  31
ANN ARBOR      FOG       38  38 100 CALM      29.98F VSB 3/4
BAD AXE        CLOUDY    35  34  99 CALM      30.03S FOG
CARO           CLOUDY    37  36  96 CALM      30.00S FOG
DETROIT CITY   FOG       36  36 100 E3        30.01F VSB 1/2
DETROIT        DRZL/FOG  38  38 100 E3        30.00F VSB 1/4
FLINT          CLOUDY    37  36  96 E7        29.99F FOG     WCI  32
GROSSE ILE     FOG       37  37  99 CALM      29.99F VSB 1/2
HILLSDALE      SNOW      41  39  93 SE6       29.94F VSB 1/4
HOWELL         MIX PCPN  38  38 100 SE5       29.97F VSB 3/4 WCI  34

CITY           SKY/WX    TMP DP  RH WIND       PRES   REMARKS
JACKSON        FOG       38  38 100 E3        29.95F VSB 1/2
LAMBERTVILLE   FOG       38  38  97 CALM      29.98F VSB 3/4
LANSING        FOG       37  37 100 E5        29.96F VSB 1/2 WCI  33
LAPEER         CLOUDY    37  37  99 CALM      30.00F FOG
MASON          FOG       39  36  87 SE3       29.95F VSB 3/4
MONROE         FOG       37  35  93 CALM      29.99S VSB 3/4
MT. CLEMENS      N/A    N/A N/A N/A E5          N/A  VSB 1/8
PONTIAC        DRZL/FOG  37  37 100 E6        29.98F VSB 1/4 WCI  32
PORT HOPE        N/A     32  31  96 SE7       30.02S WCI  26
PORT HURON     MIX PCPN  36  34  93 CALM      30.02F VSB 1/2
TRI CITIES     CLOUDY    34  34 100 NE7       30.01F FOG     WCI  28
MIDLAND        CLOUDY    35  35  99 E5        30.00F FOG     WCI  31
TROY           FOG       37  37  98 E3        30.02F VSB 1/2
SAGINAW HB     CLOUDY    34  34 100 NE3       30.01S FOG
$$
MIZ043>046-050>051-056>058-064>065-071>073-077>080-220600-
SOUTHWEST LOWER MICHIGAN

CITY           SKY/WX    TMP DP  RH WIND       PRES   REMARKS
BATTLE CREEK   FOG       40  40 100 SE5       29.93F VSB 1/2
BENTON HARBOR  FOG       44  43  96 SE7       29.89F VSB 1/2
BIG RAPIDS     MIX PCPN  35  34  94 E5        29.96F WCI  31
COLDWATER      FOG       44  44 100 S8        29.93F VSB 3/4
FREMONT        CLOUDY    37  36  94 E9        29.93F FOG     WCI  31
HOLLAND        FOG       38  37  97 E5        29.92F VSB 3/4 WCI  34
GRAND RAPIDS   FOG       37  37 100 E7        29.94S VSB 1/2 WCI  32
IONIA          MIX PCPN  37  37 100 E6        29.95S VSB 1/2 WCI  32
KALAMAZOO      FOG       43  42  97 S3        29.93S VSB 1/2
LUDINGTON      LGT RAIN  37  37 100 E5        29.95F WCI  33
MARSHALL       FOG       39  38  99 E3        29.93F VSB 1/2
MOUNT PLEASANT FOG       37  35  96 E3        29.98F VSB 1
MUSKEGON       LGT RAIN  39  36  89 E6        29.93S FOG     WCI  35
SOUTH HAVEN    FOG       42  41  95 SE3       29.91F VSB 1
$$
MIZ016>042-220600-
NORTHERN LOWER MICHIGAN

CITY           SKY/WX    TMP DP  RH WIND       PRES   REMARKS
ALPENA         FOG       32  32 100 SE5       30.05R VSB 3/4 WCI  27
BEAVER ISLAND  CLOUDY    33  33  99 E6        30.03S FOG     WCI  28
BELLAIRE       CLOUDY    32  32 100 CALM      30.01S
CADILLAC       CLOUDY    34  34  99 CALM      29.96S FOG
CHARLEVOIX     CLOUDY    34  33  99 CALM      30.04S FOG
FRANKFORT      CLOUDY    38  34  84 E5        29.98F WCI  35
GAYLORD        CLOUDY    33  32  96 NE3       29.98F
GRAYLING       CLOUDY    32  30  92 CALM      29.99S
HARBOR SPRINGS CLOUDY    34  32  93 NE3       30.02R
HOUGHTON LAKE  CLOUDY    33  32  96 CALM      29.99F FOG
MANISTEE       CLOUDY    37  34  89 NE6       29.97S WCI  32
OSCODA         FOG       31  31  99 CALM      30.03S VSB 1/2
PELLSTON       CLOUDY    34  33  96 NE5       30.04R FOG     WCI  30
ROGERS CITY    CLOUDY    32  32  99 E6        30.05R FOG     WCI  26
TRAVERSE CITY  CLOUDY    34  33  96 CALM      29.99S FOG
$$
MIZ007>008-015-220600-
EASTERN UPPER MICHIGAN

CITY           SKY/WX    TMP DP  RH WIND       PRES   REMARKS
KINROSS        CLOUDY    33  31  92 E8        30.06R WCI  26
MACKINAC ISLAN FOG       33  33 100 NE12G17   30.03S VSB 1/4 WCI  24
NEWBERRY       CLOUDY    31  30  97 NE5       30.03F WCI  26
S. S. MARIE    CLOUDY    35  31  85 E3        30.07R
MUNISING         N/A     33  33 100 N7        30.04F WCI  27
$$
MIZ004>006-011>014-085-220600-
CENTRAL UPPER MICHIGAN

CITY           SKY/WX    TMP DP  RH WIND       PRES   REMARKS
ESCANABA       CLOUDY    34  31  88 N5        30.02F WCI  30
SAWYER-GWINN   SNOW      30  29  96 NE13      30.03S VSB 1/4 WCI  20
$$
MIZ001>003-009>011-084-220600-
WESTERN UPPER MICHIGAN

CITY           SKY/WX    TMP DP  RH WIND       PRES   REMARKS
IRON MOUNTAIN  CLOUDY    33  30  88 N5        29.99F WCI  29
HOUGHTON       CLOUDY    29  25  85 NE12      30.06S FOG     WCI  19
COPPER HARBOR    N/A     30  26  85 E8        30.12R WCI  22
IRONWOOD       CLOUDY    30  29  96 NE9       30.03S WCI  22
$$

ABBREVIATIONS USED IN REMARKS
   TC - TEMPERATURE IN CELSIUS
  WCI - WIND CHILL INDEX
   HX - HEAT INDEX
  VSB - VISIBILITY





USA.gov is the U.S. government's official web portal to all federal, state and local government web resources and services.